sat.trackr.live / text

‹ back to catalog

STARLINK-1942

NORAD 46794 · 2020-074BH

PAYLOAD ACTIVE UNKNOWN

§ Identity

Operator
Country
US
Launch date
2020-10-24
Launch site
AFETR
Launch vehicle
Mass (kg)
RCS (m²)

Purposes: comms

External: N2YO · Heavens-Above · Gunter

§ Orbital elements

Epoch: 2026-09-18T20:10:13.290240Z

Period
87.59 min
Inclination
53.0135°
Eccentricity
0.0007748
Mean motion
16.43977437 rev/d
Perigee alt
150.2 km
Apogee alt
160.3 km
Semi-major
6,533.4 km
B*
3.8794e-4
RAAN
57.0791°
Arg perigee
276.9741°
Mean anomaly
83.0426°
Rev number
32,743

§ Raw data

STARLINK-19421 46794U 20074BH  26261.84043160  .11258080  12489-4  38794-3 0  99932 46794  53.0135  57.0791 0007748 276.9741  83.0426 16.43977437327433

JSON: /api/v1/satellites/46794 · /tle

For live sub-satellite position, see the globe view (requires WebGL).

§ Visibility from observer

Set your observer location to see the next 7 days of passes ≥ 10°. The values pass through the URL so the page stays shareable.

No JS? Fill the form by hand. The geolocation button needs JavaScript.